Weather History for KALI - November, 2013

Change the Weather History Date:

Wednesday, November 6, 2013

  Actual Average Record
Temperature  
Mean Temperature 73 °F -  
Max Temperature 86 °F 76 °F 91 °F (1996)
Min Temperature 59 °F 55 °F 39 °F (2010)
Cooling Degree Days 8    
Growing Degree Days 23 (Base 50)    
Moisture  
Dew Point 68 °F    
Average Humidity 90    
Maximum Humidity 100    
Minimum Humidity 53    
Precipitation  
Precipitation 2.10 in - - ()
Sea Level Pressure  
Sea Level Pressure 30.05 in    
Wind  
Wind Speed 5 mph (NE)    
Max Wind Speed 18 mph    
Max Gust Speed 28 mph    
Visibility 5 miles    
Events Fog , Rain    
Averages and records for this station are not official NWS values.
T = Trace of Precipitation, MM = Missing Value Source: NWS Daily Summary

Daily Weather History Graph

Daily Weather History Graph

Search for Another Location

Airport or City:

Trip Planner

Search our weather history database for the weather conditions in past years. The results will help you decide how hot, cold, wet, or windy it might be!

Date:

Astronomy

Nov. 06, 2013 Rise Set
Actual Time 6:46 AM CST 5:44 PM CST
Civil Twilight 6:22 AM CST 6:08 PM CST
Nautical Twilight 5:54 AM CST 6:36 PM CST
Astronomical Twilight 5:26 AM CST 7:04 PM CST
Moon 9:56 AM CST (11/6) 8:56 PM CST (11/6)
Length of Visible Light 11h 46m
Length of Day
10h 57m
Waxing Crescent, 14% of the Moon is Illuminated
Nov 6
Waxing Crescent
Nov 9
First Quarter
Nov 17
Full
Nov 25
Last Quarter
Dec 2
New

Hourly Weather History & Observations

Time (CST) Temp. Heat Index Dew Point Humidity Pressure Visibility Wind Dir Wind Speed Gust Speed Precip Events Conditions
12:53 AM 73.0 °F - 71.1 °F 93% 29.97 in 10.0 mi East 3.5 mph - N/A   Overcast
1:53 AM 73.0 °F - 71.1 °F 93% 29.96 in 10.0 mi Calm Calm - N/A   Overcast
2:53 AM 73.0 °F - 71.1 °F 93% 29.95 in 9.0 mi Calm Calm - N/A   Overcast
3:53 AM 72.0 °F - 71.1 °F 97% 29.95 in 8.0 mi Calm Calm - N/A   Overcast
4:53 AM 71.1 °F - 70.0 °F 96% 29.96 in 7.0 mi ESE 4.6 mph - N/A   Overcast
5:25 AM 71.6 °F - 71.6 °F 100% 29.97 in 6.0 mi ESE 4.6 mph - N/A   Scattered Clouds
5:33 AM 71.6 °F - 71.6 °F 100% 29.97 in 6.0 mi ESE 4.6 mph - N/A   Mostly Cloudy
5:53 AM 72.0 °F - 71.1 °F 97% 29.97 in 6.0 mi ESE 3.5 mph - N/A   Overcast
6:35 AM 69.8 °F - 69.8 °F 100% 29.98 in 1.5 mi SE 3.5 mph - N/A   Overcast
6:40 AM 69.8 °F - 69.8 °F 100% 29.99 in 0.5 mi SE 3.5 mph - N/A Fog Fog
6:46 AM 69.8 °F - 69.8 °F 100% 29.98 in 0.2 mi SE 3.5 mph - N/A Fog Fog
6:53 AM 69.1 °F - 69.1 °F 100% 29.98 in 0.2 mi Calm Calm - N/A Fog Fog
7:01 AM 69.8 °F - 69.8 °F 100% 29.99 in 0.2 mi Calm Calm - N/A Fog Fog
7:09 AM 69.8 °F - 69.8 °F 100% 29.99 in 0.2 mi Calm Calm - N/A Fog Fog
7:40 AM 69.8 °F - 69.8 °F 100% 30.00 in 0.2 mi Calm Calm - N/A Fog Fog
7:51 AM 71.6 °F - 71.6 °F 100% 30.01 in 0.8 mi Calm Calm - N/A   Mist
7:53 AM 72.0 °F - 72.0 °F 100% 30.00 in 1.2 mi Calm Calm - N/A   Overcast
7:57 AM 71.6 °F - 71.6 °F 100% 30.01 in 3.0 mi Calm Calm - N/A   Mostly Cloudy
8:09 AM 73.4 °F - 71.6 °F 94% 30.02 in 8.0 mi Calm Calm - N/A   Scattered Clouds
8:53 AM 78.1 °F - 72.0 °F 81% 30.03 in 10.0 mi Variable 3.5 mph - N/A   Clear
9:53 AM 82.0 °F 86.3 °F 71.1 °F 69% 30.05 in 10.0 mi SSE 6.9 mph - N/A   Clear
10:53 AM 82.9 °F 87.0 °F 70.0 °F 65% 30.05 in 10.0 mi Variable 5.8 mph - N/A   Clear
11:53 AM 84.0 °F 87.8 °F 69.1 °F 61% 30.04 in 10.0 mi SW 3.5 mph - N/A   Overcast
12:53 PM 82.9 °F 87.5 °F 71.1 °F 67% 30.02 in 8.0 mi WSW 4.6 mph - 0.00 in Rain Light Rain
1:53 PM 86.0 °F 88.8 °F 66.9 °F 53% 30.00 in 10.0 mi Calm Calm - 0.00 in   Clear
2:19 PM 80.6 °F 83.9 °F 69.8 °F 70% 30.01 in 10.0 mi NNE 13.8 mph 24.2 mph N/A   Mostly Cloudy
2:43 PM 73.4 °F - 69.8 °F 88% 30.02 in 1.8 mi NNE 9.2 mph - 0.22 in Rain Heavy Rain
2:53 PM 73.0 °F - 70.0 °F 90% 30.01 in 1.5 mi NNE 9.2 mph - 0.35 in Rain Heavy Rain
3:06 PM 73.4 °F - 69.8 °F 88% 30.02 in 2.0 mi NNE 5.8 mph - 0.13 in Rain Heavy Rain
3:24 PM 71.6 °F - 69.8 °F 94% 30.02 in 1.5 mi East 3.5 mph - 0.33 in Rain Heavy Rain
3:31 PM 71.6 °F - 69.8 °F 94% 30.01 in 3.0 mi ESE 4.6 mph - 0.35 in Rain Rain
3:53 PM 73.0 °F - 68.0 °F 84% 30.04 in 6.0 mi North 15.0 mph 26.5 mph 0.38 in Rain Light Rain
4:01 PM 71.6 °F - 68.0 °F 88% 30.06 in 4.0 mi North 9.2 mph - 0.03 in Rain Rain
4:14 PM 69.8 °F - 68.0 °F 94% 30.06 in 1.8 mi NE 12.7 mph 20.7 mph 0.11 in Rain Heavy Rain
4:26 PM 69.8 °F - 68.0 °F 94% 30.06 in 1.0 mi NE 18.4 mph 27.6 mph 0.27 in Rain Heavy Rain
4:41 PM 68.0 °F - 66.2 °F 94% 30.08 in 2.5 mi NE 15.0 mph - 0.36 in Rain Heavy Rain
4:49 PM 68.0 °F - 66.2 °F 94% 30.09 in 4.0 mi NE 12.7 mph - 0.38 in Rain Rain
4:53 PM 68.0 °F - 66.0 °F 93% 30.09 in 5.0 mi NE 11.5 mph - 0.40 in Rain Rain
5:53 PM 66.9 °F - 64.9 °F 93% 30.12 in 6.0 mi NE 11.5 mph 18.4 mph 0.20 in Rain Heavy Rain
6:01 PM 66.2 °F - 64.4 °F 94% 30.13 in 4.0 mi NE 11.5 mph 18.4 mph 0.04 in Rain Heavy Rain
6:23 PM 64.4 °F - 64.4 °F 100% 30.14 in 1.8 mi NE 13.8 mph - 0.37 in Rain Heavy Rain
6:34 PM 64.4 °F - 64.4 °F 100% 30.15 in 3.0 mi NE 12.7 mph - 0.48 in Rain Heavy Rain
6:48 PM 64.4 °F - 64.4 °F 100% 30.15 in 2.5 mi NE 11.5 mph - 0.62 in Rain Heavy Rain
6:53 PM 64.9 °F - 64.0 °F 97% 30.15 in 3.0 mi NE 10.4 mph - 0.67 in Rain Heavy Rain
7:53 PM 66.0 °F - 63.0 °F 90% 30.18 in 10.0 mi NNE 15.0 mph - 0.08 in Rain Light Rain
8:53 PM 64.0 °F - 60.1 °F 87% 30.21 in 10.0 mi North 13.8 mph - 0.01 in   Overcast
9:53 PM 62.1 °F - 55.9 °F 80% 30.22 in 10.0 mi North 12.7 mph 19.6 mph N/A   Overcast
10:53 PM 60.1 °F - 51.1 °F 72% 30.24 in 10.0 mi North 13.8 mph - 0.00 in Rain Light Rain
11:53 PM 59.0 °F - 51.1 °F 75% 30.24 in 10.0 mi North 11.5 mph - 0.01 in   Mostly Cloudy